Rockland, ME

10:19 AM EDT on March 28, 2017 (GMT -0400)
Knox County Regional

Weather History for KRKD - February, 2014

Change the Weather History Date:

Thursday, February 27, 2014

  Actual Average Record
Temperature  
Mean Temperature 12 °F -  
Max Temperature 24 °F 33 °F 48 °F (1998)
Min Temperature 0 °F 19 °F -2 °F (2003)
Degree Days  
Heating Degree Days 53    
Moisture  
Dew Point 4 °F    
Average Humidity 72    
Maximum Humidity 100    
Minimum Humidity 41    
Precipitation  
Precipitation 0.01 in - - ()
Sea Level Pressure  
Sea Level Pressure 29.73 in    
Wind  
Wind Speed 4 mph (NW)    
Max Wind Speed 13 mph    
Max Gust Speed -    
Visibility 9 miles    
Events      
Averages and records for this station are not official NWS values.
T = Trace of Precipitation, MM = Missing Value Source: NWS Daily Summary

Daily Weather History Graph

Daily Weather History Graph

Search for Another Location

Airport or City:

Trip Planner

Search our weather history database for the weather conditions in past years. The results will help you decide how hot, cold, wet, or windy it might be!

Date:

Astronomy

Feb. 27, 2014 Rise Set
Actual Time 6:16 AM EST 5:22 PM EST
Civil Twilight 5:47 AM EST 5:51 PM EST
Nautical Twilight 5:14 AM EST 6:24 PM EST
Astronomical Twilight 4:40 AM EST 6:58 PM EST
Moon 4:49 AM EST (2/27) 3:41 PM EST (2/27)
Length of Visible Light 12h 03m
Length of Day
11h 05m
Waning Crescent, 4% of the Moon is Illuminated
Feb 27
Waning Crescent
Mar 1
New
Mar 8
First Quarter
Mar 16
Full
Mar 23
Last Quarter

Hourly Weather History & Observations

Time (EST) Temp. Windchill Dew Point Humidity Pressure Visibility Wind Dir Wind Speed Gust Speed Precip Events Conditions
12:15 AM 12.2 °F 6.1 °F -7.6 °F 41% 29.83 in 10.0 mi NNW 3.5 mph - N/A   Clear
12:35 AM 12.2 °F 4.3 °F -7.6 °F 41% 29.83 in 10.0 mi NNW 4.6 mph - N/A   Clear
12:55 AM 12.2 °F 6.1 °F -7.6 °F 41% 29.84 in 10.0 mi NW 3.5 mph - N/A   Clear
1:15 AM 10.4 °F 4.0 °F -9.4 °F 41% 29.84 in 10.0 mi NNW 3.5 mph - N/A   Clear
1:35 AM 8.6 °F 0.1 °F -7.6 °F 48% 29.84 in 10.0 mi NW 4.6 mph - N/A   Clear
1:55 AM 3.2 °F - -7.6 °F 61% 29.84 in 10.0 mi Calm Calm - N/A   Clear
2:15 AM 3.2 °F - -4.0 °F 72% 29.84 in 10.0 mi Calm Calm - N/A   Clear
2:35 AM 3.2 °F - -5.8 °F 66% 29.84 in 10.0 mi Calm Calm - N/A   Clear
2:55 AM 1.4 °F -6.2 °F -5.8 °F 72% 29.84 in 10.0 mi West 3.5 mph - N/A   Clear
3:15 AM 1.4 °F -6.2 °F -5.8 °F 72% 29.84 in 10.0 mi NW 3.5 mph - N/A   Clear
3:35 AM 1.4 °F -6.2 °F -4.0 °F 78% 29.85 in 10.0 mi WNW 3.5 mph - N/A   Clear
3:55 AM 1.4 °F -6.2 °F -4.0 °F 78% 29.85 in 10.0 mi WNW 3.5 mph - N/A   Clear
4:15 AM 1.4 °F - -4.0 °F 78% 29.83 in 10.0 mi Calm Calm - N/A   Clear
4:35 AM -0.4 °F - -2.2 °F 92% 29.82 in 10.0 mi Calm Calm - N/A   Clear
4:55 AM -0.4 °F - -5.8 °F 78% 29.82 in 10.0 mi Calm Calm - N/A   Clear
5:15 AM -0.4 °F - -5.8 °F 78% 29.81 in 10.0 mi Calm Calm - N/A   Clear
5:35 AM -0.4 °F - -5.8 °F 78% 29.80 in 10.0 mi Calm Calm - N/A   Clear
5:55 AM -0.4 °F - -2.2 °F 92% 29.80 in 10.0 mi Calm Calm - N/A   Clear
6:15 AM -0.4 °F -10.4 °F -2.2 °F 92% 29.80 in 10.0 mi West 4.6 mph - N/A   Clear
6:35 AM 1.4 °F -6.2 °F -2.2 °F 85% 29.79 in 10.0 mi West 3.5 mph - N/A   Clear
6:55 AM 1.4 °F - -5.8 °F 72% 29.79 in 10.0 mi Calm Calm - N/A   Clear
7:15 AM 1.4 °F - -2.2 °F 85% 29.79 in 10.0 mi Calm Calm - N/A   Clear
7:35 AM 5.0 °F - 1.4 °F 85% 29.79 in 10.0 mi Calm Calm - N/A   Clear
7:55 AM 12.2 °F - 5.0 °F 73% 29.78 in 10.0 mi Calm Calm - N/A   Clear
8:15 AM 15.8 °F 6.1 °F 3.2 °F 58% 29.77 in 10.0 mi NE 6.9 mph - N/A   Clear
8:35 AM 15.8 °F 5.1 °F 3.2 °F 58% 29.77 in 10.0 mi East 8.1 mph - N/A   Clear
8:55 AM 15.8 °F 7.2 °F 3.2 °F 58% 29.77 in 10.0 mi East 5.8 mph - N/A   Scattered Clouds
9:15 AM 15.8 °F - 3.2 °F 58% 29.76 in 10.0 mi Calm Calm - N/A   Scattered Clouds
9:35 AM 15.8 °F 6.1 °F 5.0 °F 62% 29.76 in 10.0 mi ENE 6.9 mph - N/A   Partly Cloudy
9:55 AM 17.6 °F 8.2 °F 5.0 °F 58% 29.75 in 10.0 mi ESE 6.9 mph - N/A   Clear
10:15 AM 17.6 °F 5.7 °F 6.8 °F 63% 29.74 in 10.0 mi East 10.4 mph - N/A   Clear
10:35 AM 17.6 °F 4.3 °F 8.6 °F 68% 29.73 in 10.0 mi East 12.7 mph - N/A   Scattered Clouds
10:55 AM 17.6 °F 6.4 °F 10.4 °F 73% 29.72 in 7.0 mi East 9.2 mph - N/A   Mostly Cloudy
11:15 AM 17.6 °F 7.3 °F 12.2 °F 79% 29.71 in 3.0 mi East 8.1 mph - N/A   Overcast
11:35 AM 17.6 °F 7.3 °F 12.2 °F 79% 29.70 in 2.5 mi East 8.1 mph - N/A   Overcast
11:55 AM 19.4 °F 7.2 °F 14.0 °F 80% 29.68 in 1.5 mi ESE 11.5 mph - N/A   Overcast
12:15 PM 19.4 °F 7.9 °F 14.0 °F 80% 29.68 in 1.8 mi East 10.4 mph - N/A   Overcast
12:35 PM 19.4 °F 12.8 °F 14.0 °F 80% 29.66 in 1.2 mi ENE 4.6 mph - N/A   Overcast
12:55 PM 19.4 °F 9.5 °F 15.8 °F 86% 29.65 in 0.5 mi NE 8.1 mph - N/A   Overcast
1:15 PM 19.4 °F 12.8 °F 15.8 °F 86% 29.64 in 1.0 mi NNE 4.6 mph - N/A   Overcast
1:35 PM 19.4 °F 14.3 °F 15.8 °F 86% 29.64 in 0.2 mi NNW 3.5 mph - N/A   Overcast
1:55 PM 21.2 °F 16.4 °F 17.6 °F 86% 29.64 in 2.0 mi NNE 3.5 mph - 0.01 in   Overcast
2:15 PM 21.2 °F 16.4 °F 15.8 °F 80% 29.64 in 10.0 mi North 3.5 mph - N/A   Mostly Cloudy
2:35 PM 21.2 °F - 17.6 °F 86% 29.63 in 10.0 mi Calm Calm - N/A   Mostly Cloudy
2:55 PM 21.2 °F 14.9 °F 17.6 °F 86% 29.63 in 10.0 mi NNE 4.6 mph - N/A   Overcast
3:15 PM 21.2 °F 16.4 °F 15.8 °F 80% 29.62 in 10.0 mi ENE 3.5 mph - N/A   Scattered Clouds
3:35 PM 23.0 °F - 15.8 °F 74% 29.61 in 10.0 mi Calm Calm - N/A   Mostly Cloudy
3:55 PM 24.8 °F 16.1 °F 8.6 °F 50% 29.62 in 10.0 mi WSW 8.1 mph - N/A   Scattered Clouds
4:15 PM 23.0 °F 14.7 °F 8.6 °F 54% 29.61 in 10.0 mi SW 6.9 mph - N/A   Clear
4:35 PM 23.0 °F 13.9 °F 8.6 °F 54% 29.62 in 10.0 mi SW 8.1 mph - N/A   Clear
4:55 PM 23.0 °F 13.1 °F 6.8 °F 50% 29.63 in 10.0 mi SW 9.2 mph - N/A   Clear
5:15 PM 21.2 °F 10.9 °F 6.8 °F 54% 29.64 in 10.0 mi WSW 9.2 mph - N/A   Clear
5:35 PM 21.2 °F 11.7 °F 6.8 °F 54% 29.65 in 10.0 mi WSW 8.1 mph - N/A   Clear
5:55 PM 21.2 °F 11.7 °F 6.8 °F 54% 29.65 in 10.0 mi West 8.1 mph - N/A   Scattered Clouds
6:15 PM 21.2 °F 9.5 °F 5.0 °F 50% 29.66 in 10.0 mi West 11.5 mph - N/A   Scattered Clouds
6:35 PM 21.2 °F 10.9 °F 6.8 °F 54% 29.67 in 10.0 mi West 9.2 mph - N/A   Scattered Clouds
6:55 PM 21.2 °F 16.4 °F 8.6 °F 58% 29.66 in 10.0 mi West 3.5 mph - N/A   Partly Cloudy
7:15 PM 19.4 °F 12.8 °F 6.8 °F 58% 29.67 in 10.0 mi West 4.6 mph - N/A   Partly Cloudy
7:35 PM 17.6 °F 12.3 °F 8.6 °F 68% 29.67 in 10.0 mi West 3.5 mph - N/A   Mostly Cloudy
7:55 PM 15.8 °F - 8.6 °F 73% 29.67 in 10.0 mi Calm Calm - N/A   Scattered Clouds
8:15 PM 15.8 °F 10.2 °F 10.4 °F 79% 29.68 in 10.0 mi NW 3.5 mph - N/A   Clear
8:35 PM 10.4 °F - 8.6 °F 92% 29.68 in 10.0 mi Calm Calm - N/A   Clear
8:55 PM 10.4 °F - 8.6 °F 92% 29.69 in 10.0 mi Calm Calm - N/A   Clear
9:15 PM 8.6 °F - 3.2 °F 79% 29.69 in 10.0 mi Calm Calm - N/A   Clear
9:35 PM 8.6 °F - 3.2 °F 79% 29.70 in 10.0 mi Calm Calm - N/A   Clear
9:55 PM 8.6 °F - 6.8 °F 92% 29.69 in 10.0 mi Calm Calm - N/A   Clear
10:15 PM 5.0 °F - 3.2 °F 92% 29.69 in 10.0 mi Calm Calm - N/A   Clear
10:35 PM 6.8 °F -3.5 °F 1.4 °F 79% 29.70 in 10.0 mi NW 5.8 mph - N/A   Clear
10:55 PM 6.8 °F -2.0 °F 3.2 °F 85% 29.70 in 10.0 mi WNW 4.6 mph - N/A   Clear
11:15 PM 6.8 °F -2.0 °F 5.0 °F 92% 29.71 in 10.0 mi South 4.6 mph - N/A   Clear
11:35 PM 8.6 °F 2.0 °F 8.6 °F 100% 29.72 in 10.0 mi WSW 3.5 mph - N/A   Clear
11:55 PM 8.6 °F 0.1 °F 3.2 °F 79% 29.73 in 10.0 mi WNW 4.6 mph - N/A   Clear